Home   Weather   Rostock   Past weeks

Flag for Germany Past Weather in Rostock, Mecklenburg-Western Pomerania, Germany — Yesterday and Last 2 Weeks

Now
46 °F

Passing clouds.


Feels Like: 44 °F
Forecast: 38 / 49 °F
Wind: 6 mph from Southwest

Location: Laage

Current Time: Apr 28, 2017 at 10:15:47 am

Latest Report: Apr 28, 2017 at 9:20 am


Visibility: N/A

Pressure: 29.92 "Hg

Humidity: 62%

Dew Point: 34 °F

Location of RostockLocation

Past Weather in Rostock — Graph

°F

Rostock Temperature Yesterday

Maximum temperature yesterday: 50 °F (at 5:20 pm)
Minimum temperature yesterday: 30 °F (at 4:20 am)
Average temperature yesterday: 41 °F

High & Low Weather Summary for the Past Weeks

 TemperatureHumidityPressure
High57 °F (Apr 21, 3:20 pm)100% (Apr 16, 6:13 am)30.60 "Hg (Apr 16, 6:13 am)
Low27 °F (Apr 20, 3:20 am)42% (Apr 19, 2:20 pm)29.56 "Hg (Apr 25, 7:00 am)
Average42 °F76%29.98 "Hg
* Reported Apr 13 8:20 am — Apr 28 8:20 am, Rostock, Weather by CustomWeather, © 2017

Note: Actual official high and low records may vary slightly from our data, if they occured in-between our weather recording intervals... More about our weather records

Advertising

Rostock Weather History for the Previous 24 Hours

Scroll right to see more
 ConditionsComfort  
Time TempWeatherWind HumidityBarometerVisibility
8:20 am
Fri, Apr 28
43 °FPassing clouds.5 mph71%29.89 "HgN/A
7:20 am39 °FPassing clouds.7 mph70%29.92 "HgN/A
6:20 am37 °FPassing clouds.6 mph75%29.92 "HgN/A
5:19 am37 °FPassing clouds.6 mph75%29.92 "HgN/A
4:20 am37 °FPassing clouds.5 mph75%29.92 "HgN/A
3:20 am37 °FPassing clouds.3 mph81%29.92 "HgN/A
2:20 am37 °FPassing clouds.1 mph81%29.92 "HgN/A
1:20 am37 °FPassing clouds.3 mph81%29.92 "HgN/A
12:20 am36 °FPassing clouds.2 mph87%29.95 "HgN/A
11:20 pm
Thu, Apr 27
37 °FPassing clouds.5 mph81%29.95 "HgN/A
10:20 pm39 °FPassing clouds.5 mph75%29.95 "HgN/A
9:20 pm45 °FPassing clouds.3 mph57%29.95 "HgN/A
8:20 pm46 °FScattered showers. Broken clouds.7 mph62%29.92 "HgN/A
7:20 pm48 °FScattered clouds.6 mph50%29.92 "HgN/A
6:20 pm48 °FScattered clouds.5 mph50%29.92 "HgN/A
5:20 pm50 °FPassing clouds.7 mph43%29.92 "HgN/A
4:20 pm48 °FPassing clouds.12 mph50%29.92 "HgN/A
3:20 pm48 °FScattered showers. Partly sunny.17 mph43%29.92 "HgN/A
2:20 pm46 °FScattered clouds.8 mph57%29.92 "HgN/A
1:20 pm48 °FScattered showers. Scattered clouds.10 mph46%29.92 "HgN/A
12:20 pm48 °FScattered clouds.10 mph50%29.92 "HgN/A
11:20 am46 °FScattered clouds.13 mph50%29.92 "HgN/A
10:20 am45 °FPartly sunny.9 mph66%29.92 "HgN/A
Weather by CustomWeather, © 2017

See weather overviewHow to use our weather pages